Torna al catalogo

STARLINK-31223

AttivoComunicazioniVLEO
NORAD 58865·PAYLOAD·🇺🇸 United States

Lanciato Jan 29, 2024 da Cape Canaveral Space Force Station

Loading…

Prossimi Passaggi (prossime 24 ore)

TLE

AggiornatoSource: CelesTrak SupGP

Epoca: Sep 14, 2026, 21:14 UTC

1 58865C 24019N   26257.88520833  .00026094  00000+0  94549-3 0  2578
2 58865  43.0026 260.4715 0001512 265.4191 222.0749 15.27552756    13

Traccia STARLINK-31223 in tempo reale con AllMySat

Download on the App Store